Satellite: PO-28
Catalog number: 22829
Epoch time:      08122.50729459
Element set:     933
Inclination:      098.3616 deg
RA of node:       086.3330 deg
Eccentricity:    0.0010108
Arg of perigee:   013.3363 deg
Mean anomaly:     346.8083 deg
Mean motion:   14.30187667 rev/day
Decay rate:        1.1e-07 rev/day^2
Epoch rev:           76145
Checksum:              298

Satellite: GO-32
Catalog number: 25397
Epoch time:      08121.79387297
Element set:     587
Inclination:      098.3682 deg
RA of node:       159.2879 deg
Eccentricity:    0.0001853
Arg of perigee:   048.3436 deg
Mean anomaly:     311.7915 deg
Mean motion:   14.23142004 rev/day
Decay rate:       -5.0e-07 rev/day^2
Epoch rev:           50947
Checksum:              327

Satellite: MO-46
Catalog number: 26548
Epoch time:      08122.57817869
Element set:      86
Inclination:      064.5578 deg
RA of node:       274.4962 deg
Eccentricity:    0.0024512
Arg of perigee:   330.5413 deg
Mean anomaly:     029.4263 deg
Mean motion:   14.83254853 rev/day
Decay rate:       -3.5e-07 rev/day^2
Epoch rev:           41090
Checksum:              318

Satellite: NO-44
Catalog number: 26931
Epoch time:      08121.77997124
Element set:    0868
Inclination:      067.0534 deg
RA of node:       046.7822 deg
Eccentricity:    0.0006050
Arg of perigee:   276.6029 deg
Mean anomaly:     083.4383 deg
Mean motion:   14.29522113 rev/day
Decay rate:       1.47e-06 rev/day^2
Epoch rev:           34363
Checksum:              306

Satellite: SO-50
Catalog number: 27607
Epoch time:      08121.70065723
Element set:     591
Inclination:      064.5592 deg
RA of node:       197.8538 deg
Eccentricity:    0.0084226
Arg of perigee:   288.8397 deg
Mean anomaly:     070.3586 deg
Mean motion:   14.71349712 rev/day
Decay rate:      -1.44e-06 rev/day^2
Epoch rev:           28798
Checksum:              345

Satellite: CO-55
Catalog number: 27844
Epoch time:      08121.54196560
Element set:    0294
Inclination:      098.7172 deg
RA of node:       130.4702 deg
Eccentricity:    0.0008893
Arg of perigee:   253.3133 deg
Mean anomaly:     106.7073 deg
Mean motion:   14.20576161 rev/day
Decay rate:        6.2e-07 rev/day^2
Epoch rev:           25067
Checksum:              293

Satellite: CO-57
Catalog number: 27848
Epoch time:      08122.59029371
Element set:     246
Inclination:      098.7170 deg
RA of node:       130.6090 deg
Eccentricity:    0.0008904
Arg of perigee:   255.5328 deg
Mean anomaly:     104.4852 deg
Mean motion:   14.20385426 rev/day
Decay rate:        4.6e-07 rev/day^2
Epoch rev:           25079
Checksum:              307

Satellite: AO-51
Catalog number: 28375
Epoch time:      08121.61030028
Element set:      88
Inclination:      098.0754 deg
RA of node:       148.8488 deg
Eccentricity:    0.0083802
Arg of perigee:   297.9657 deg
Mean anomaly:     061.3074 deg
Mean motion:   14.40605220 rev/day
Decay rate:        1.1e-07 rev/day^2
Epoch rev:           20155
Checksum:              290

Satellite: CO-56
Catalog number: 28941
Epoch time:      08122.76736932
Element set:      15
Inclination:      098.1024 deg
RA of node:       227.2145 deg
Eccentricity:    0.0174653
Arg of perigee:   209.2913 deg
Mean anomaly:     149.8477 deg
Mean motion:   15.54382218 rev/day
Decay rate:     2.9476e-04 rev/day^2
Epoch rev:           12282
Checksum:              326

Satellite: CP4
Catalog number: 31122
Epoch time:      08122.19692183
Element set:     326
Inclination:      098.0447 deg
RA of node:       189.5257 deg
Eccentricity:    0.0087931
Arg of perigee:   115.0660 deg
Mean anomaly:     245.9700 deg
Mean motion:   14.55119300 rev/day
Decay rate:       5.53e-06 rev/day^2
Epoch rev:            5524
Checksum:              286

Satellite: CP3
Catalog number: 31128
Epoch time:      08121.85376900
Element set:    0322
Inclination:      098.0420 deg
RA of node:       187.2869 deg
Eccentricity:    0.0104266
Arg of perigee:   120.9407 deg
Mean anomaly:     240.2072 deg
Mean motion:   14.51940046 rev/day
Decay rate:       -4.6e-07 rev/day^2
Epoch rev:           05506
Checksum:              269

Satellite: LIBERT
Catalog number: 31129
Epoch time:      08122.72667882
Element set:     932
Inclination:      098.0408 deg
RA of node:       188.1604 deg
Eccentricity:    0.0103322
Arg of perigee:   118.1959 deg
Mean anomaly:     242.9719 deg
Mean motion:   14.52030744 rev/day
Decay rate:       3.40e-06 rev/day^2
Epoch rev:            5517
Checksum:              289

/EX
SB KEPS @ AMSAT  $ORB08122.W
Orbital Elements  08122.WEATHER

HR AMSAT ORBITAL ELEMENTS FOR WEATHER SATELLITES
FROM WA5QGD FORT WORTH,TX May 1, 2008
Send Subscribe/unsubscribe to KEPS at 
http://www.amsat.org/mailman/listinfo/keps
BID: ORB08122.W
TO ALL RADIO AMATEURS BT

Satellite: NOAA-10
Catalog number: 16969
Epoch time:      08121.69747066
Element set:    0103
Inclination:      098.7251 deg
RA of node:       143.7568 deg
Eccentricity:    0.0011781
Arg of perigee:   323.1029 deg
Mean anomaly:     036.9307 deg
Mean motion:   14.27357137 rev/day
Decay rate:      -1.42e-06 rev/day^2
Epoch rev:           12466
Checksum:              302

